GTI846 KMIA-MMMX

Flight info

Callsign GTI846
Flight time 2h 30m
Altitude FL320
Route MAYNR3 CANOA UB646 XOPGI UR522 PAZ UT154 ENAGA ENAGA3A
Aircraft B748/H-SABDE1E2FGIJ1J3J4J5J6J7M2M3P1P2RTUVW/NACEHB1B2U1V1V2D1G1

Departure

Time 2026-05-06 00:53
Airport Miami International Airport (KMIA)

Arrival

Time 2026-05-06 03:23
Airport Mexico City Benito Juárez International Airport (MMMX)
Time Latitude Longitude Altitude Speed Heading
2026-05-06 00:40 25.79063 -80.30631 22 ft 0 kts 309°
2026-05-06 00:46 25.79058 -80.30624 22 ft 0 kts 309°
2026-05-06 00:46 25.79049 -80.30613 22 ft 0 kts 309°
2026-05-06 00:46 25.79041 -80.30601 22 ft 0 kts 309°
2026-05-06 00:47 25.79033 -80.30589 22 ft 0 kts 291°
2026-05-06 00:47 25.79033 -80.30574 22 ft 0 kts 248°
2026-05-06 00:47 25.79042 -80.30564 22 ft 0 kts 204°
2026-05-06 00:47 25.79054 -80.30562 22 ft 0 kts 180°
2026-05-06 00:49 25.79021 -80.30562 22 ft 9 kts 180°
2026-05-06 00:49 25.78963 -80.30561 22 ft 11 kts 179°
2026-05-06 00:50 25.78890 -80.30561 22 ft 13 kts 187°
2026-05-06 00:50 25.78836 -80.30661 22 ft 20 kts 265°
2026-05-06 00:50 25.78829 -80.30805 22 ft 20 kts 266°
2026-05-06 00:50 25.78825 -80.30924 22 ft 18 kts 268°
2026-05-06 00:51 25.78820 -80.31043 22 ft 13 kts 267°
2026-05-06 00:51 25.78815 -80.31162 22 ft 18 kts 267°
2026-05-06 00:51 25.78810 -80.31289 22 ft 17 kts 268°
2026-05-06 00:51 25.78802 -80.31424 22 ft 15 kts 252°
2026-05-06 00:52 25.78706 -80.31469 22 ft 20 kts 176°
2026-05-06 00:52 25.78611 -80.31402 22 ft 16 kts 95°
2026-05-06 00:52 25.78615 -80.31333 22 ft 8 kts 86°
2026-05-06 00:52 25.78624 -80.31112 22 ft 70 kts 87°
2026-05-06 00:53 25.78662 -80.30159 23 ft 173 kts 86°
2026-05-06 00:53 25.78760 -80.28617 496 ft 225 kts 85°
2026-05-06 00:53 25.78793 -80.26836 944 ft 230 kts 96°
2026-05-06 00:53 25.78203 -80.25245 1387 ft 222 kts 127°
2026-05-06 00:54 25.77017 -80.24140 1990 ft 228 kts 145°
2026-05-06 00:54 25.75734 -80.23045 2585 ft 237 kts 136°
2026-05-06 00:54 25.74712 -80.21630 3174 ft 237 kts 124°
2026-05-06 00:54 25.73632 -80.20234 3757 ft 241 kts 136°
2026-05-06 00:55 25.72210 -80.19204 4352 ft 250 kts 152°
2026-05-06 00:55 25.70462 -80.18602 4982 ft 277 kts 169°
2026-05-06 00:55 25.68550 -80.18642 6190 ft 274 kts 189°
2026-05-06 00:55 25.66687 -80.19138 7442 ft 281 kts 193°
2026-05-06 00:56 25.64700 -80.19522 8317 ft 295 kts 189°
2026-05-06 00:56 25.62689 -80.19977 9484 ft 295 kts 199°
2026-05-06 00:56 25.60819 -80.20892 10592 ft 300 kts 210°
2026-05-06 00:56 25.58944 -80.22063 11337 ft 320 kts 212°
2026-05-06 00:57 25.56949 -80.23320 12037 ft 342 kts 212°
2026-05-06 00:57 25.54810 -80.24664 12697 ft 364 kts 212°
2026-05-06 00:57 25.52593 -80.26053 13871 ft 367 kts 212°
2026-05-06 00:57 25.50364 -80.27446 15079 ft 372 kts 212°
2026-05-06 00:58 25.48072 -80.28867 16027 ft 382 kts 212°
2026-05-06 00:58 25.45730 -80.30316 16946 ft 390 kts 213°
2026-05-06 00:58 25.43351 -80.31790 17824 ft 397 kts 213°
2026-05-06 00:58 25.40911 -80.33298 18659 ft 405 kts 213°
2026-05-06 00:59 25.38428 -80.34835 19442 ft 412 kts 213°
2026-05-06 00:59 25.35919 -80.36387 20290 ft 416 kts 213°
2026-05-06 00:59 25.33395 -80.37945 21108 ft 419 kts 213°
2026-05-06 00:59 25.30832 -80.39528 21865 ft 423 kts 213°
2026-05-06 01:00 25.28246 -80.41137 22523 ft 429 kts 214°
2026-05-06 01:00 25.25650 -80.42778 23222 ft 432 kts 214°
2026-05-06 01:00 25.22929 -80.44218 23885 ft 439 kts 207°
2026-05-06 01:00 25.20026 -80.45352 24536 ft 445 kts 203°
2026-05-06 01:01 25.17058 -80.46382 25128 ft 448 kts 202°
2026-05-06 01:01 25.14074 -80.47386 25650 ft 453 kts 202°
2026-05-06 01:01 25.11023 -80.48392 25989 ft 462 kts 201°
2026-05-06 01:01 25.07924 -80.49400 26373 ft 467 kts 201°
2026-05-06 01:02 25.04787 -80.50408 26866 ft 471 kts 201°
2026-05-06 01:02 25.01626 -80.51391 27247 ft 477 kts 201°
2026-05-06 01:02 24.98412 -80.52405 27655 ft 480 kts 201°
2026-05-06 01:02 24.95196 -80.53421 28059 ft 484 kts 201°
2026-05-06 01:03 24.91945 -80.54455 28428 ft 488 kts 201°
2026-05-06 01:03 24.88677 -80.55494 28802 ft 491 kts 201°
2026-05-06 01:03 24.85440 -80.56625 29120 ft 490 kts 207°
2026-05-06 01:03 24.82494 -80.58451 29403 ft 481 kts 222°
2026-05-06 01:04 24.80143 -80.61012 29691 ft 472 kts 236°
2026-05-06 01:04 24.78913 -80.62982 29905 ft 470 kts 242°
2026-05-06 01:04 24.76627 -80.67082 30317 ft 474 kts 242°
2026-05-06 01:04 24.75453 -80.69140 30540 ft 475 kts 243°
2026-05-06 01:05 24.73701 -80.72202 30965 ft 475 kts 242°
2026-05-06 01:05 24.71920 -80.75278 31352 ft 475 kts 242°
2026-05-06 01:05 24.70145 -80.78320 31735 ft 474 kts 242°
2026-05-06 01:05 24.68349 -80.81389 31889 ft 479 kts 242°
2026-05-06 01:06 24.66533 -80.84477 32067 ft 484 kts 242°
2026-05-06 01:06 24.62831 -80.90749 32067 ft 494 kts 242°
2026-05-06 01:07 24.59111 -80.97060 32061 ft 490 kts 242°
2026-05-06 01:07 24.56344 -81.03752 32057 ft 478 kts 261°
2026-05-06 01:08 24.55135 -81.10924 32056 ft 477 kts 263°
2026-05-06 01:08 24.53941 -81.18080 32056 ft 477 kts 263°
2026-05-06 01:09 24.52719 -81.25235 32055 ft 477 kts 263°
2026-05-06 01:09 24.51483 -81.32383 32054 ft 478 kts 263°
2026-05-06 01:10 24.50232 -81.39549 32054 ft 478 kts 263°
2026-05-06 01:10 24.48967 -81.46704 32053 ft 478 kts 263°
2026-05-06 01:11 24.47687 -81.53855 32053 ft 479 kts 263°
2026-05-06 01:11 24.46436 -81.61024 32053 ft 478 kts 263°
2026-05-06 01:12 24.44744 -81.68082 32054 ft 485 kts 253°
2026-05-06 01:12 24.42019 -81.74865 32054 ft 487 kts 250°
2026-05-06 01:13 24.39162 -81.81590 32053 ft 484 kts 250°
2026-05-06 01:13 24.36291 -81.88242 32054 ft 485 kts 250°
2026-05-06 01:14 24.31922 -81.98242 32053 ft 485 kts 249°
2026-05-06 01:14 24.29015 -82.04896 32053 ft 485 kts 249°
2026-05-06 01:15 24.26086 -82.11555 32053 ft 485 kts 249°
2026-05-06 01:15 24.23144 -82.18190 32053 ft 488 kts 249°
2026-05-06 01:16 24.20154 -82.24895 32054 ft 489 kts 248°
2026-05-06 01:16 24.17335 -82.31669 32054 ft 493 kts 253°
2026-05-06 01:17 24.15564 -82.38995 32056 ft 505 kts 259°
2026-05-06 01:17 24.13870 -82.46544 32056 ft 518 kts 259°
2026-05-06 01:18 24.12090 -82.54169 32053 ft 516 kts 258°
2026-05-06 01:18 24.10274 -82.61769 32052 ft 518 kts 258°
2026-05-06 01:19 24.08463 -82.69390 32052 ft 517 kts 258°
2026-05-06 01:19 24.06680 -82.77028 32051 ft 518 kts 258°
2026-05-06 01:20 24.04876 -82.84656 32050 ft 518 kts 258°
2026-05-06 01:20 24.03055 -82.92286 32050 ft 519 kts 258°
2026-05-06 01:21 24.01239 -82.99915 32050 ft 518 kts 259°
2026-05-06 01:21 23.98921 -83.07385 32051 ft 523 kts 250°
2026-05-06 01:22 23.95889 -83.14624 32050 ft 524 kts 248°
2026-05-06 01:22 23.92741 -83.21806 32050 ft 524 kts 248°
2026-05-06 01:23 23.89536 -83.28972 32050 ft 525 kts 247°
2026-05-06 01:23 23.86291 -83.36141 32050 ft 528 kts 247°
2026-05-06 01:24 23.83044 -83.43313 32050 ft 527 kts 247°
2026-05-06 01:24 23.79776 -83.50473 32050 ft 527 kts 247°
2026-05-06 01:25 23.76447 -83.57610 32050 ft 527 kts 246°
2026-05-06 01:25 23.73155 -83.64713 32050 ft 522 kts 246°
2026-05-06 01:26 23.69880 -83.71804 32050 ft 528 kts 247°
2026-05-06 01:26 23.66668 -83.79002 32050 ft 525 kts 248°
2026-05-06 01:27 23.63541 -83.86183 32050 ft 526 kts 248°
2026-05-06 01:27 23.60350 -83.93362 32050 ft 526 kts 248°
2026-05-06 01:28 23.57124 -84.00510 32050 ft 526 kts 247°
2026-05-06 01:28 23.53871 -84.07639 32050 ft 526 kts 247°
2026-05-06 01:29 23.50610 -84.14756 32050 ft 526 kts 247°
2026-05-06 01:29 23.47333 -84.21881 32050 ft 526 kts 247°
2026-05-06 01:30 23.44037 -84.28986 32049 ft 526 kts 246°
2026-05-06 01:30 23.40731 -84.36074 32049 ft 525 kts 246°
2026-05-06 01:31 23.37429 -84.43125 32048 ft 525 kts 246°
2026-05-06 01:31 23.34124 -84.50219 32048 ft 525 kts 246°
2026-05-06 01:32 23.30777 -84.57277 32049 ft 525 kts 246°
2026-05-06 01:32 23.27439 -84.64339 32049 ft 525 kts 246°
2026-05-06 01:33 23.24135 -84.71357 32048 ft 525 kts 246°
2026-05-06 01:33 23.20884 -84.78539 32049 ft 530 kts 247°
2026-05-06 01:34 23.17628 -84.85721 32049 ft 530 kts 246°
2026-05-06 01:34 23.14323 -84.92860 32048 ft 530 kts 246°
2026-05-06 01:35 23.10979 -84.99988 32049 ft 530 kts 245°
2026-05-06 01:35 23.07609 -85.07105 32049 ft 530 kts 245°
2026-05-06 01:36 23.04254 -85.14197 32048 ft 530 kts 245°
2026-05-06 01:36 23.00871 -85.21318 32047 ft 530 kts 245°
2026-05-06 01:37 22.97493 -85.28367 32047 ft 528 kts 245°
2026-05-06 01:37 22.94091 -85.35427 32047 ft 527 kts 245°
2026-05-06 01:38 22.90689 -85.42463 32046 ft 527 kts 245°
2026-05-06 01:38 22.87281 -85.49503 32046 ft 527 kts 245°
2026-05-06 01:39 22.83961 -85.56569 32046 ft 527 kts 246°
2026-05-06 01:39 22.80658 -85.63653 32046 ft 526 kts 245°
2026-05-06 01:40 22.77305 -85.70693 32046 ft 527 kts 245°
2026-05-06 01:40 22.73932 -85.77695 32046 ft 518 kts 244°
2026-05-06 01:41 22.70583 -85.84605 32046 ft 524 kts 245°
2026-05-06 01:41 22.67162 -85.91638 32046 ft 530 kts 244°
2026-05-06 01:42 22.63793 -85.98709 32046 ft 529 kts 246°
2026-05-06 01:42 22.60691 -86.05913 32046 ft 527 kts 248°
2026-05-06 01:43 22.57641 -86.13046 32041 ft 528 kts 247°
2026-05-06 01:43 22.54478 -86.20290 32036 ft 528 kts 247°
2026-05-06 01:44 22.51319 -86.27434 32031 ft 528 kts 246°
2026-05-06 01:44 22.48098 -86.34648 32029 ft 538 kts 247°
2026-05-06 01:45 22.44846 -86.41922 32027 ft 537 kts 247°
2026-05-06 01:45 22.41602 -86.49184 32020 ft 538 kts 247°
2026-05-06 01:46 22.39170 -86.56730 32005 ft 530 kts 262°
2026-05-06 01:46 22.38147 -86.64621 32000 ft 531 kts 264°
2026-05-06 01:47 22.37126 -86.72502 31995 ft 530 kts 264°
2026-05-06 01:47 22.36085 -86.80342 31990 ft 531 kts 264°
2026-05-06 01:48 22.35018 -86.88258 31984 ft 532 kts 264°
2026-05-06 01:48 22.33965 -86.96164 31983 ft 532 kts 264°
2026-05-06 01:49 22.32899 -87.04055 31982 ft 531 kts 264°
2026-05-06 01:49 22.31814 -87.11933 31982 ft 532 kts 263°
2026-05-06 01:50 22.30715 -87.19816 31981 ft 532 kts 263°
2026-05-06 01:50 22.29612 -87.27725 31982 ft 531 kts 264°
2026-05-06 01:51 22.28630 -87.35581 31982 ft 530 kts 264°
2026-05-06 01:51 22.27581 -87.43463 31982 ft 530 kts 263°
2026-05-06 01:52 22.26471 -87.51322 31981 ft 530 kts 263°
2026-05-06 01:52 22.25334 -87.59183 31981 ft 530 kts 263°
2026-05-06 01:53 22.24329 -87.67059 31982 ft 533 kts 264°
2026-05-06 01:53 22.23291 -87.74985 31981 ft 532 kts 264°
2026-05-06 01:54 22.22202 -87.82885 31982 ft 534 kts 263°
2026-05-06 01:54 22.21085 -87.90790 31982 ft 533 kts 263°
2026-05-06 01:55 22.19954 -87.98690 31983 ft 533 kts 263°
2026-05-06 01:55 22.18824 -88.06622 31982 ft 539 kts 264°
2026-05-06 01:56 22.17820 -88.14607 31977 ft 533 kts 264°
2026-05-06 01:56 22.16822 -88.22525 31971 ft 534 kts 263°
2026-05-06 01:57 22.15765 -88.30420 31968 ft 533 kts 263°
2026-05-06 01:57 22.14664 -88.38342 31967 ft 534 kts 263°
2026-05-06 01:58 22.13535 -88.46255 31967 ft 534 kts 263°
2026-05-06 01:58 22.12590 -88.52831 31967 ft 534 kts 263°
2026-05-06 01:59 22.11214 -88.62053 31967 ft 534 kts 263°
2026-05-06 01:59 22.10231 -88.68651 31967 ft 534 kts 263°
2026-05-06 02:00 22.09053 -88.76546 31947 ft 536 kts 263°
2026-05-06 02:00 22.07867 -88.84479 31940 ft 539 kts 262°
2026-05-06 02:01 22.06674 -88.92441 31934 ft 537 kts 262°
2026-05-06 02:01 22.05478 -89.00392 31929 ft 538 kts 262°
2026-05-06 02:02 22.04348 -89.08322 31924 ft 538 kts 263°
2026-05-06 02:02 22.03170 -89.16305 31919 ft 537 kts 263°
2026-05-06 02:03 22.02081 -89.24267 31914 ft 538 kts 262°
2026-05-06 02:03 22.00891 -89.32205 31908 ft 537 kts 262°
2026-05-06 02:04 21.99671 -89.40149 31904 ft 537 kts 262°
2026-05-06 02:04 21.98565 -89.48097 31903 ft 537 kts 262°
2026-05-06 02:05 21.97362 -89.56005 31901 ft 537 kts 262°
2026-05-06 02:05 21.96131 -89.63957 31900 ft 537 kts 262°
2026-05-06 02:06 21.95005 -89.71850 31898 ft 537 kts 263°
2026-05-06 02:06 21.93884 -89.79843 31897 ft 537 kts 262°
2026-05-06 02:07 21.92705 -89.87814 31897 ft 540 kts 262°
2026-05-06 02:07 21.91488 -89.95783 31896 ft 539 kts 261°
2026-05-06 02:08 21.90251 -90.03739 31893 ft 539 kts 261°
2026-05-06 02:08 21.89000 -90.11696 31887 ft 539 kts 261°
2026-05-06 02:09 21.87743 -90.19646 31886 ft 539 kts 261°
2026-05-06 02:09 21.86481 -90.27589 31886 ft 539 kts 261°
2026-05-06 02:10 21.85301 -90.35535 31885 ft 536 kts 262°
2026-05-06 02:10 21.84106 -90.43464 31884 ft 541 kts 261°
2026-05-06 02:11 21.82833 -90.51407 31881 ft 535 kts 260°
2026-05-06 02:11 21.81630 -90.59334 31879 ft 538 kts 261°
2026-05-06 02:12 21.80419 -90.67266 31879 ft 537 kts 261°
2026-05-06 02:12 21.79161 -90.75177 31878 ft 537 kts 261°
2026-05-06 02:13 21.77895 -90.83084 31877 ft 537 kts 261°
2026-05-06 02:13 21.76731 -90.91001 31877 ft 537 kts 261°
2026-05-06 02:14 21.75521 -90.98925 31877 ft 537 kts 261°
2026-05-06 02:14 21.74259 -91.06839 31877 ft 538 kts 261°
2026-05-06 02:15 21.72966 -91.14791 31877 ft 541 kts 261°
2026-05-06 02:15 21.71663 -91.22738 31877 ft 540 kts 261°
2026-05-06 02:16 21.70456 -91.30721 31876 ft 540 kts 262°
2026-05-06 02:16 21.69277 -91.38678 31876 ft 540 kts 261°
2026-05-06 02:17 21.68024 -91.46646 31876 ft 540 kts 261°
2026-05-06 02:17 21.66704 -91.54598 31876 ft 541 kts 260°
2026-05-06 02:18 21.65357 -91.62540 31876 ft 541 kts 260°
2026-05-06 02:18 21.64018 -91.70482 31876 ft 540 kts 260°
2026-05-06 02:19 21.62689 -91.78375 31876 ft 541 kts 260°
2026-05-06 02:19 21.61343 -91.86368 31876 ft 540 kts 260°
2026-05-06 02:20 21.59448 -91.98290 31876 ft 540 kts 262°
2026-05-06 02:21 21.58239 -92.06252 31876 ft 540 kts 261°
2026-05-06 02:21 21.56969 -92.14219 31876 ft 540 kts 261°
2026-05-06 02:22 21.55664 -92.22155 31877 ft 541 kts 261°
2026-05-06 02:22 21.54336 -92.30084 31877 ft 540 kts 261°
2026-05-06 02:23 21.53010 -92.38028 31876 ft 541 kts 261°
2026-05-06 02:23 21.51670 -92.45963 31876 ft 540 kts 260°
2026-05-06 02:24 21.50289 -92.53908 31876 ft 541 kts 260°
2026-05-06 02:24 21.48895 -92.61811 31877 ft 540 kts 260°
2026-05-06 02:25 21.47517 -92.69748 31877 ft 541 kts 260°
2026-05-06 02:25 21.46161 -92.77684 31877 ft 540 kts 261°
2026-05-06 02:26 21.44877 -92.85673 31877 ft 543 kts 261°
2026-05-06 02:26 21.43537 -92.93594 31876 ft 540 kts 260°
2026-05-06 02:27 21.42160 -93.01528 31876 ft 540 kts 260°
2026-05-06 02:27 21.40781 -93.09454 31876 ft 540 kts 260°
2026-05-06 02:28 21.39514 -93.17378 31876 ft 540 kts 261°
2026-05-06 02:28 21.38260 -93.25334 31877 ft 540 kts 261°
2026-05-06 02:29 21.36964 -93.33261 31876 ft 540 kts 261°
2026-05-06 02:29 21.35644 -93.41142 31876 ft 540 kts 260°
2026-05-06 02:30 21.34283 -93.49104 31876 ft 541 kts 260°
2026-05-06 02:30 21.32909 -93.56973 31876 ft 540 kts 260°
2026-05-06 02:31 21.31507 -93.64915 31876 ft 541 kts 260°
2026-05-06 02:31 21.30098 -93.72842 31877 ft 540 kts 260°
2026-05-06 02:32 21.28693 -93.80707 31877 ft 541 kts 260°
2026-05-06 02:32 21.27273 -93.88675 31876 ft 540 kts 260°
2026-05-06 02:33 21.25886 -93.96583 31876 ft 540 kts 260°
2026-05-06 02:33 21.25421 -93.99207 31877 ft 540 kts 260°
2026-05-06 02:34 21.23061 -94.12394 31876 ft 540 kts 260°
2026-05-06 02:34 21.21635 -94.20277 31876 ft 540 kts 259°
2026-05-06 02:35 21.20226 -94.28188 31876 ft 541 kts 260°
2026-05-06 02:35 21.18800 -94.36122 31876 ft 543 kts 260°
2026-05-06 02:36 21.17357 -94.44046 31876 ft 542 kts 260°
2026-05-06 02:36 21.15897 -94.51979 31877 ft 543 kts 259°
2026-05-06 02:37 21.14416 -94.59876 31876 ft 543 kts 260°
2026-05-06 02:37 21.12952 -94.67808 31876 ft 542 kts 259°
2026-05-06 02:38 21.11481 -94.75735 31876 ft 543 kts 259°
2026-05-06 02:38 21.10007 -94.83648 31876 ft 542 kts 259°
2026-05-06 02:39 21.08527 -94.91567 31876 ft 543 kts 259°
2026-05-06 02:39 21.07109 -94.99483 31876 ft 542 kts 261°
2026-05-06 02:40 21.05680 -95.07405 31877 ft 541 kts 259°
2026-05-06 02:40 21.04202 -95.15291 31876 ft 541 kts 259°
2026-05-06 02:41 21.02706 -95.23230 31876 ft 547 kts 259°
2026-05-06 02:41 21.01305 -95.31132 31876 ft 536 kts 259°
2026-05-06 02:42 20.99864 -95.38970 31876 ft 539 kts 259°
2026-05-06 02:42 20.98382 -95.46812 31877 ft 538 kts 259°
2026-05-06 02:43 20.96903 -95.54659 31877 ft 538 kts 259°
2026-05-06 02:43 20.95518 -95.62531 31876 ft 538 kts 259°
2026-05-06 02:44 20.94097 -95.70398 31877 ft 538 kts 259°
2026-05-06 02:44 20.92646 -95.78244 31872 ft 539 kts 259°
2026-05-06 02:45 20.91181 -95.86042 31852 ft 531 kts 259°
2026-05-06 02:45 20.89706 -95.93808 31847 ft 534 kts 259°
2026-05-06 02:46 20.88252 -96.01585 31842 ft 533 kts 259°
2026-05-06 02:46 20.86776 -96.09355 31837 ft 534 kts 259°
2026-05-06 02:47 20.85286 -96.17115 31832 ft 533 kts 259°
2026-05-06 02:47 20.83782 -96.24881 31818 ft 534 kts 258°
2026-05-06 02:48 20.82287 -96.32654 31813 ft 534 kts 258°
2026-05-06 02:48 20.80789 -96.40416 31807 ft 534 kts 258°
2026-05-06 02:49 20.79270 -96.48188 31802 ft 534 kts 258°
2026-05-06 02:49 20.77719 -96.55946 31797 ft 535 kts 258°
2026-05-06 02:50 20.76178 -96.63690 31792 ft 534 kts 258°
2026-05-06 02:50 20.74643 -96.71463 31786 ft 534 kts 258°
2026-05-06 02:51 20.73124 -96.79312 31783 ft 543 kts 258°
2026-05-06 02:51 20.71666 -96.87156 31777 ft 537 kts 258°
2026-05-06 02:52 20.70160 -96.94994 31774 ft 539 kts 258°
2026-05-06 02:52 20.68629 -97.02798 31770 ft 538 kts 258°
2026-05-06 02:53 20.67075 -97.10620 31766 ft 538 kts 258°
2026-05-06 02:53 20.65515 -97.18420 31765 ft 538 kts 257°
2026-05-06 02:54 20.64206 -97.24939 31764 ft 538 kts 257°
2026-05-06 02:54 20.62645 -97.32691 31762 ft 532 kts 257°
2026-05-06 02:55 20.61092 -97.40433 31761 ft 534 kts 257°
2026-05-06 02:55 20.58215 -97.47651 31760 ft 532 kts 235°
2026-05-06 02:55 20.55984 -97.50730 31759 ft 517 kts 231°
2026-05-06 02:56 20.53745 -97.53636 31757 ft 496 kts 230°
2026-05-06 02:56 20.49355 -97.59221 31758 ft 494 kts 230°
2026-05-06 02:57 20.44907 -97.64834 31754 ft 496 kts 230°
2026-05-06 02:57 20.40448 -97.70442 31750 ft 496 kts 230°
2026-05-06 02:58 20.35995 -97.76048 31744 ft 496 kts 230°
2026-05-06 02:58 20.31579 -97.81598 31739 ft 489 kts 229°
2026-05-06 02:59 20.27157 -97.87128 31728 ft 492 kts 229°
2026-05-06 02:59 20.22720 -97.92664 31714 ft 493 kts 229°
2026-05-06 03:00 20.18189 -97.98308 31694 ft 509 kts 229°
2026-05-06 03:00 20.13644 -98.04039 31674 ft 505 kts 229°
2026-05-06 03:01 20.09094 -98.09725 31457 ft 504 kts 229°
2026-05-06 03:01 20.06827 -98.12533 30747 ft 499 kts 229°
2026-05-06 03:01 20.04600 -98.15348 30139 ft 502 kts 231°
2026-05-06 03:01 20.02764 -98.18545 29720 ft 511 kts 244°
2026-05-06 03:02 20.01654 -98.22116 29341 ft 504 kts 255°
2026-05-06 03:02 20.00890 -98.25690 28945 ft 492 kts 256°
2026-05-06 03:02 20.00131 -98.29210 28545 ft 481 kts 256°
2026-05-06 03:02 19.99414 -98.32627 28150 ft 470 kts 256°
2026-05-06 03:03 19.98712 -98.35985 27751 ft 460 kts 256°
2026-05-06 03:03 19.98026 -98.39273 27355 ft 451 kts 256°
2026-05-06 03:03 19.97357 -98.42487 26960 ft 442 kts 256°
2026-05-06 03:03 19.96702 -98.45640 26690 ft 430 kts 256°
2026-05-06 03:04 19.96074 -98.48667 26650 ft 414 kts 256°
2026-05-06 03:04 19.95460 -98.51609 26655 ft 404 kts 256°
2026-05-06 03:04 19.94838 -98.54554 26677 ft 412 kts 256°
2026-05-06 03:04 19.94212 -98.57546 26720 ft 415 kts 256°
2026-05-06 03:05 19.93592 -98.60534 26754 ft 413 kts 256°
2026-05-06 03:05 19.92979 -98.63501 26791 ft 413 kts 256°
2026-05-06 03:05 19.92363 -98.66489 26804 ft 414 kts 257°
2026-05-06 03:05 19.91759 -98.69466 26816 ft 411 kts 257°
2026-05-06 03:06 19.91187 -98.72438 26829 ft 411 kts 258°
2026-05-06 03:06 19.90759 -98.75432 26826 ft 412 kts 262°
2026-05-06 03:06 19.90390 -98.78443 26478 ft 408 kts 261°
2026-05-06 03:06 19.90041 -98.81415 25837 ft 408 kts 261°
2026-05-06 03:07 19.89699 -98.84413 25198 ft 408 kts 262°
2026-05-06 03:07 19.89394 -98.87395 24703 ft 404 kts 264°
2026-05-06 03:07 19.89358 -98.90358 24257 ft 400 kts 270°
2026-05-06 03:07 19.89483 -98.93290 23797 ft 395 kts 271°
2026-05-06 03:08 19.89632 -98.96178 23321 ft 391 kts 272°
2026-05-06 03:08 19.89791 -98.99051 22853 ft 387 kts 272°
2026-05-06 03:08 19.89955 -99.01892 22377 ft 383 kts 272°
2026-05-06 03:08 19.90121 -99.04699 21901 ft 379 kts 272°
2026-05-06 03:09 19.90288 -99.07471 21426 ft 375 kts 272°
2026-05-06 03:09 19.90457 -99.10229 20933 ft 372 kts 273°
2026-05-06 03:09 19.90626 -99.12961 20452 ft 369 kts 273°
2026-05-06 03:09 19.90794 -99.15656 19981 ft 365 kts 273°
2026-05-06 03:10 19.90961 -99.18336 19512 ft 362 kts 273°
2026-05-06 03:10 19.91127 -99.20990 19047 ft 358 kts 273°
2026-05-06 03:10 19.91300 -99.23604 18619 ft 352 kts 274°
2026-05-06 03:10 19.91483 -99.26149 18474 ft 336 kts 274°
2026-05-06 03:11 19.91521 -99.28557 18347 ft 318 kts 265°
2026-05-06 03:11 19.91181 -99.30817 18339 ft 304 kts 257°
2026-05-06 03:11 19.90691 -99.33012 18341 ft 308 kts 255°
2026-05-06 03:11 19.90160 -99.35237 18341 ft 313 kts 255°
2026-05-06 03:12 19.89615 -99.37472 18343 ft 313 kts 255°
2026-05-06 03:12 19.89066 -99.39714 18345 ft 314 kts 255°
2026-05-06 03:12 19.88526 -99.41949 18342 ft 314 kts 255°
2026-05-06 03:12 19.87695 -99.44087 18091 ft 313 kts 236°
2026-05-06 03:13 19.86173 -99.45684 17978 ft 307 kts 212°
2026-05-06 03:13 19.84193 -99.46502 17877 ft 307 kts 189°
2026-05-06 03:13 19.82076 -99.46424 17731 ft 305 kts 166°
2026-05-06 03:13 19.80163 -99.45514 17547 ft 304 kts 148°
2026-05-06 03:14 19.78386 -99.44299 17299 ft 302 kts 146°
2026-05-06 03:14 19.76646 -99.43072 17028 ft 300 kts 145°
2026-05-06 03:14 19.74933 -99.41831 16753 ft 299 kts 145°
2026-05-06 03:14 19.73228 -99.40567 16474 ft 300 kts 144°
2026-05-06 03:15 19.71531 -99.39285 16193 ft 298 kts 144°
2026-05-06 03:15 19.69884 -99.38018 15915 ft 286 kts 143°
2026-05-06 03:15 19.68324 -99.36794 15618 ft 273 kts 143°
2026-05-06 03:15 19.66833 -99.35600 15366 ft 267 kts 142°
2026-05-06 03:16 19.65354 -99.34390 15142 ft 270 kts 142°
2026-05-06 03:16 19.63899 -99.33166 14870 ft 261 kts 141°
2026-05-06 03:16 19.62527 -99.31962 14615 ft 255 kts 140°
2026-05-06 03:16 19.61194 -99.30726 14511 ft 248 kts 138°
2026-05-06 03:17 19.59977 -99.29519 14269 ft 233 kts 137°
2026-05-06 03:17 19.58781 -99.28429 14063 ft 224 kts 140°
2026-05-06 03:17 19.57539 -99.27397 13859 ft 228 kts 142°
2026-05-06 03:17 19.56278 -99.26386 13602 ft 227 kts 143°
2026-05-06 03:18 19.55001 -99.25401 13336 ft 227 kts 144°
2026-05-06 03:18 19.53735 -99.24411 13056 ft 228 kts 144°
2026-05-06 03:18 19.52369 -99.23587 12590 ft 226 kts 156°
2026-05-06 03:18 19.50880 -99.23023 12209 ft 227 kts 162°
2026-05-06 03:19 19.49378 -99.22497 11903 ft 227 kts 161°
2026-05-06 03:19 19.47923 -99.21995 11633 ft 212 kts 161°
2026-05-06 03:19 19.46565 -99.21527 11362 ft 199 kts 160°
2026-05-06 03:19 19.45270 -99.21082 11103 ft 194 kts 160°
2026-05-06 03:20 19.42735 -99.20221 10611 ft 188 kts 160°
2026-05-06 03:20 19.41497 -99.19804 10372 ft 185 kts 161°
2026-05-06 03:20 19.40277 -99.19407 10136 ft 182 kts 161°
2026-05-06 03:21 19.39131 -99.18866 9871 ft 182 kts 147°
2026-05-06 03:21 19.38380 -99.17790 9435 ft 189 kts 115°
2026-05-06 03:21 19.38326 -99.16422 9069 ft 188 kts 83°
2026-05-06 03:21 19.38888 -99.15157 8847 ft 193 kts 62°
2026-05-06 03:22 19.39636 -99.13987 8578 ft 190 kts 59°
2026-05-06 03:22 19.40313 -99.12793 8317 ft 190 kts 62°
2026-05-06 03:22 19.40991 -99.11594 8062 ft 189 kts 62°
2026-05-06 03:22 19.41662 -99.10408 7812 ft 188 kts 62°
2026-05-06 03:23 19.42341 -99.09216 7537 ft 188 kts 61°
2026-05-06 03:23 19.42998 -99.08056 7331 ft 175 kts 61°
2026-05-06 03:23 19.43478 -99.07197 7331 ft 85 kts 57°
2026-05-06 03:23 19.43685 -99.06837 7330 ft 37 kts 55°
2026-05-06 03:24 19.43814 -99.06689 7330 ft 21 kts 32°
2026-05-06 03:24 19.43851 -99.06665 7330 ft 0 kts 31°
2026-05-06 03:25 19.43882 -99.06646 7330 ft 8 kts 31°
2026-05-06 03:26 19.43939 -99.06612 7330 ft 8 kts 27°
2026-05-06 03:26 19.44002 -99.06578 7330 ft 9 kts 27°
2026-05-06 03:26 19.44035 -99.06560 7330 ft 6 kts 27°
2026-05-06 03:26 19.44097 -99.06526 7330 ft 7 kts 26°
2026-05-06 03:27 19.44158 -99.06493 7330 ft 14 kts 26°
2026-05-06 03:27 19.44239 -99.06467 7330 ft 10 kts 359°
2026-05-06 03:27 19.44286 -99.06481 7330 ft 8 kts 327°
2026-05-06 03:27 19.44301 -99.06559 7330 ft 16 kts 248°
2026-05-06 03:28 19.44249 -99.06639 7330 ft 9 kts 237°
2026-05-06 03:28 19.44197 -99.06728 7330 ft 15 kts 239°
2026-05-06 03:28 19.44143 -99.06823 7330 ft 12 kts 239°
2026-05-06 03:28 19.44095 -99.06908 7330 ft 16 kts 239°
2026-05-06 03:29 19.44048 -99.06991 7330 ft 12 kts 239°
2026-05-06 03:29 19.44026 -99.07056 7330 ft 6 kts 281°
2026-05-06 03:29 19.44048 -99.07126 7330 ft 16 kts 261°
2026-05-06 03:29 19.44013 -99.07200 7330 ft 8 kts 240°
2026-05-06 03:30 19.44026 -99.07265 7330 ft 15 kts 319°
2026-05-06 03:30 19.44054 -99.07286 7330 ft 0 kts 327°